Location: Ferchesar
(52.6477°N, 12.4298°E)
Time: 09:07:36
(UTC+01:00)

S-56A Canister/Altair - Pass Details

Date: 16 December 2021
Orbit: 633 x 2499 km, 38.9° (Epoch: 19 January)

Event Time Altitude Azimuth Distance (km) Brightness Sun altitude
Rises 23:10:15 0° 261° (W) 5,964 12.2 -58.8°
Enters shadow 23:14:28 - 255° (WSW) 4,851 11.6 -59.1°
Reaches altitude 10° 23:14:48 10° 254° (WSW) 4,764 - -59.1°
Maximum altitude 23:25:55 37° 195° (SSW) 2,522 - -59.7°
Drops below altitude 10° 23:33:55 10° 132° (SE) 3,422 - -60.1°
Sets 23:36:39 0° 124° (SE) 4,153 - -60.2°
